Temp
25 24 25 26 27 28 28 27 27 28 29 25 26 27 25 26 26 26 25 25 25 25 25 25 25 24 24 24 24 24 23 23 23 22 22 22 22 23 23 23 23 23 24 24
24 24 26 27 28 28 29 28 27 27 29 26 27 26 26 26 26 26 26 25 26 24 23 24 24 24 23 24 24 24 24 24 23 23 23 23 24 24 24 23 23 24 24 24
24 27 27 27 26 27 26 27 27 27 26 27 28 26 26 26 27 27 27 27 26 25 24 23 23 23 23 23 23 24 25 25 24 24 24 24 23 23 23 23 24 24 24 24
26 26 27 26 27 26 26 28 28 27 26 25 27 24 25 25 26 26 26 26 26 26 25 24 24 23 23 23 24 24 25 25 24 24 24 24 24 23 24 24 24 24 24 24
26 26 26 26 26 27 25 27 27 27 26 25 26 25 25 24 25 26 27 27 27 26 26 25 24 24 24 23 23 24 24 24 24 24 24 24 24 24 25 24 24 24 24 25
24 24 24 26 25 26 25 26 23 22 21 23 25 25 24 23 26 26 27 27 28 27 27 26 25 25 24 24 23 23 24 24 24 24 24 24 24 24 24 24 24 25 25 25
21 23 23 24 23 23 21 20 20 23 23 23 23 24 24 27 27 27 27 27 28 28 27 26 25 25 24 24 23 23 23 23 24 24 24 25 25 25 25 25 25 25 25 25
19 21 22 23 24 24 22 21 19 23 21 22 22 24 26 27 28 28 28 28 28 28 28 27 26 25 25 24 23 23 23 23 24 24 25 25 25 25 25 25 25 25 26 26
18 20 22 24 24 24 23 21 22 21 20 19 21 23 25 27 27 29 28 27 27 28 28 27 27 26 25 25 24 23 23 23 23 25 25 25 25 25 25 26 25 25 26 26
21 19 20 22 22 23 23 22 20 17 22 22 20 23 23 26 26 27 27 27 27 28 29 28 28 26 26 25 25 24 24 24 24 25 24 25 25 25 25 25 25 25 26 26
19 17 19 21 21 20 18 20 18 17 16 19 18 20 22 26 23 25 26 26 26 28 29 28 28 27 26 26 25 24 24 23 23 24 24 24 25 25 25 25 26 25 26 26
18 14 17 19 19 18 19 20 16 16 18 16 17 18 24 23 24 24 24 25 23 27 29 29 28 27 26 25 25 25 24 23 23 24 24 24 24 25 25 25 26 26 26 26
19 15 14 16 17 18 19 21 20 16 14 16 18 19 25 23 22 20 21 23 22 23 26 25 26 26 25 25 25 25 24 24 24 23 24 23 23 24 24 25 25 25 26 26
16 13 15 15 17 17 18 19 19 18 16 17 17 19 20 22 19 20 21 21 21 20 23 23 25 26 26 26 25 25 24 24 24 23 23 23 23 24 24 24 25 25 25 26
15 15 14 14 16 17 16 17 18 18 17 17 20 20 20 19 19 19 18 20 21 20 20 20 20 20 23 24 25 25 24 24 24 23 23 23 23 23 24 24 24 25 25 25
12 14 14 16 16 16 17 18 18 18 19 19 19 18 19 19 18 19 18 19 20 20 19 19 19 19 19 20 23 24 24 24 24 23 23 23 23 23 23 24 24 24 25 25
14 12 12 14 15 16 15 17 18 18 19 19 18 19 19 19 18 18 18 18 18 18 18 18 18 19 18 19 22 23 23 24 24 23 23 23 23 23 23 24 23 24 24 24
11 11 11 12 14 15 17 17 19 19 20 18 18 18 18 18 18 17 17 17 18 17 18 18 18 18 18 19 21 22 23 23 23 23 23 23 23 23 23 23 23 23 23 23
10 10 12 13 11 14 17 19 16 16 17 18 18 18 18 18 18 17 18 17 17 17 17 17 17 17 18 19 19 20 21 22 23 23 23 23 22 22 22 22 22 23 23 23
10 9 13 10 13 14 16 16 15 15 15 18 17 17 17 17 19 17 17 17 17 17 17 17 17 17 17 18 19 20 19 19 19 19 20 21 21 21 21 21 20 21 22 20
11 10 12 11 12 13 14 15 15 15 16 14 15 16 17 16 16 14 14 17 17 16 16 16 16 16 16 17 18 17 17 17 17 17 17 18 19 19 19 19 19 19 19 20
12 11 11 10 11 13 14 15 16 13 13 14 14 14 15 15 15 14 15 16 16 16 16 16 15 15 15 16 17 18 17 18 19 18 17 18 18 18 18 19 19 19 19 18
12 11 12 12 11 12 12 13 13 12 12 13 14 14 13 15 15 15 14 15 15 15 15 16 15 15 15 16 16 16 17 17 19 19 20 19 19 21 21 18 18 19 18 18
12 10 11 13 13 12 12 11 11 11 11 12 12 13 13 15 15 15 14 15 15 15 14 14 14 14 14 15 16 16 16 17 17 18 19 18 19 20 19 19 18 18 18 18
11 12 12 12 12 11 12 11 11 11 11 12 13 14 14 15 14 14 13 13 13 13 13 13 12 12 12 14 15 17 17 17 17 16 16 17 18 18 18 17 17 18 17 17
10 11 11 11 11 11 11 11 11 11 12 13 13 14 14 14 13 13 12 12 12 11 12 12 12 12 11 13 15 16 17 18 17 16 16 16 17 17 17 18 18 18 18 18
Height
784 801 810 800 796 793 798 805 811 797 782 796 796 788 789 787 790 792 793 795 796 796 796 801 804 808 812 817 820 823 826 829 833 836 839 841 843 846 848 850 852 854 857 859
798 809 794 790 790 793 794 802 808 796 782 792 787 789 783 782 780 781 784 787 789 793 793 796 801 805 807 811 815 820 823 826 830 833 836 839 841 844 847 849 851 853 856 858
804 795 787 789 796 801 804 805 805 806 793 782 781 794 788 780 778 781 781 780 782 785 788 791 796 799 803 807 811 815 819 823 826 830 834 837 840 843 845 847 849 852 855 857
797 788 790 796 797 800 811 791 793 800 808 824 786 829 795 785 782 779 776 777 777 779 781 785 789 794 798 801 806 811 816 820 823 828 831 833 836 840 842 845 847 850 852 855
803 797 798 802 802 793 807 790 794 794 806 808 802 819 799 784 791 779 769 767 767 768 772 776 780 784 789 796 801 806 812 817 820 824 828 831 834 837 840 842 845 848 850 853
802 796 800 800 795 794 791 793 803 809 818 832 808 810 805 796 773 766 760 757 755 756 760 766 770 776 782 790 797 802 806 811 816 820 824 827 830 834 836 839 842 845 848 851
818 812 803 798 807 799 807 823 846 836 831 835 806 812 797 764 759 756 752 749 745 747 755 758 765 771 777 784 790 796 801 805 810 815 819 822 826 830 833 836 838 841 844 848
842 839 815 806 808 815 816 823 850 843 850 832 812 812 786 754 745 742 739 735 735 740 742 747 752 759 765 772 781 788 794 800 804 808 813 817 822 825 828 832 834 837 840 843
845 837 812 805 803 807 815 830 818 832 837 845 824 794 770 751 748 740 736 733 730 729 731 734 741 747 755 763 770 779 786 792 797 801 806 811 816 820 823 827 831 833 836 839
827 845 822 814 806 807 813 812 834 847 843 842 831 810 801 769 763 751 741 735 727 721 721 726 731 739 746 754 762 770 777 782 787 794 800 804 809 814 819 823 826 829 833 836
826 841 834 820 822 828 831 829 833 840 849 850 856 825 781 771 771 761 747 735 725 715 713 716 722 731 738 746 755 762 770 776 783 788 793 798 803 808 813 817 821 825 828 831
830 851 850 833 821 822 820 824 840 853 849 848 846 824 766 770 764 760 750 739 728 711 708 714 720 729 737 743 752 756 763 770 774 779 786 791 797 802 807 811 815 819 822 826
826 851 863 850 836 826 826 822 824 840 852 848 845 816 766 766 765 763 757 739 733 721 710 713 718 720 727 734 741 749 756 759 766 773 778 784 789 795 799 804 809 813 817 820
825 850 847 859 842 834 836 828 826 833 850 840 830 803 793 777 779 763 754 745 738 733 712 715 715 718 720 724 730 739 745 754 760 766 771 777 782 787 792 798 801 807 812 815
831 844 846 841 835 832 833 830 827 829 829 833 810 798 788 786 780 769 761 749 739 739 730 716 721 721 723 730 732 736 744 749 753 761 768 770 775 781 786 790 795 800 805 809
839 843 841 837 829 830 827 822 816 815 811 807 802 799 782 777 775 769 759 754 745 741 739 730 720 722 722 729 732 738 739 745 752 757 758 763 770 774 778 783 787 792 797 801
837 845 848 845 830 830 832 815 808 803 792 792 801 787 779 775 775 767 757 758 752 745 739 739 733 720 724 725 725 733 736 743 747 750 755 761 763 767 771 776 780 784 788 793
842 846 851 847 838 841 810 799 794 796 787 785 785 782 779 773 768 765 755 756 752 746 742 740 737 728 722 724 727 723 730 738 742 747 752 756 760 762 767 771 773 778 782 787
838 847 844 844 850 826 804 793 799 800 789 781 779 776 775 770 764 760 753 752 750 748 743 742 737 730 727 725 728 733 732 729 738 744 747 753 753 758 761 765 769 773 775 779
843 845 840 859 842 834 806 797 796 797 797 776 776 776 775 769 767 766 755 751 749 743 741 740 738 734 734 729 725 725 722 721 741 745 745 749 752 757 760 761 767 769 771 774
844 848 844 848 843 823 803 798 796 806 798 787 784 776 770 771 770 768 766 753 748 741 739 740 740 739 738 733 728 729 733 739 744 744 746 751 754 757 758 763 761 771 772 771
841 843 844 847 841 826 798 796 801 799 787 786 782 779 771 767 766 765 759 754 746 740 739 743 741 740 736 732 730 734 733 738 741 744 748 747 764 756 758 763 762 764 767 767
840 833 830 829 823 803 801 798 793 794 792 783 780 774 774 766 761 757 763 754 743 740 738 744 744 743 740 739 736 742 741 738 743 742 745 750 756 750 755 758 765 764 764 765
825 825 824 816 805 804 797 794 793 790 787 778 776 772 769 766 765 757 749 739 738 740 747 744 746 747 745 744 746 745 743 740 740 735 739 740 750 753 746 748 762 762 755 760
822 819 814 811 802 799 790 790 789 786 782 773 770 765 757 759 763 761 757 752 748 748 752 746 752 752 755 746 746 748 749 746 744 741 750 740 745 752 751 755 759 756 757 761
817 813 815 810 799 803 796 788 786 784 775 771 765 760 758 760 763 760 757 763 758 758 754 755 755 755 755 746 747 748 747 748 745 748 750 750 749 754 756 756 757 757 757 760
Wind_Speed
4 5 2 2 2 2 2 3 4 5 5 7 15 11 12 14 12 14 15 14 14 14 17 24 29 31 32 32 32 31 30 27 25 24 21 20 19 17 16 18 19 18 16 14
6 1 3 3 2 3 3 2 4 5 2 8 7 14 9 17 22 20 18 16 15 10 9 18 24 26 31 36 36 34 33 30 27 26 24 21 21 18 17 16 17 18 18 16
5 2 2 4 5 5 3 1 3 4 7 3 1 5 8 13 13 14 14 15 14 15 14 13 21 27 29 31 36 38 36 34 31 29 24 19 18 19 20 19 19 20 19 18
1 3 4 5 2 4 2 5 3 5 4 2 3 4 4 7 18 15 18 17 16 15 14 15 21 24 28 34 39 40 38 37 34 33 28 26 20 19 22 22 21 21 22 22
3 5 5 5 4 1 6 4 5 3 4 1 2 2 6 6 11 18 19 21 21 19 18 19 23 31 34 32 35 41 40 39 37 35 32 28 22 23 19 22 21 22 23 24
3 4 5 3 4 2 5 1 5 4 3 1 6 6 5 6 13 17 18 22 24 22 21 19 31 33 33 31 32 35 40 40 40 38 36 32 28 23 22 20 23 22 23 25
7 4 5 4 7 7 11 6 3 3 0 5 2 0 7 6 5 9 16 22 24 22 18 19 20 26 30 31 32 33 38 39 41 40 40 36 32 28 25 25 25 26 25 27
3 5 7 8 1 4 5 4 4 3 3 5 5 6 5 7 8 9 10 16 19 20 20 22 22 31 34 36 35 35 35 37 41 41 41 39 35 32 28 26 24 28 29 26
3 4 5 2 3 1 5 3 2 2 2 2 4 8 8 7 10 9 9 7 14 20 22 25 25 35 36 37 38 39 37 38 39 44 41 40 38 35 31 29 26 24 27 27
3 2 2 6 5 4 3 3 3 3 2 4 5 5 5 10 13 20 22 13 12 17 21 21 22 32 37 38 39 39 40 40 44 43 42 41 40 37 33 30 27 27 27 27
3 3 6 2 2 4 5 4 3 3 4 4 3 6 5 5 9 20 21 18 16 13 20 20 21 31 37 36 37 38 36 37 35 40 43 41 41 38 36 32 28 29 27 28
2 4 2 6 5 4 4 4 4 4 6 2 2 6 10 8 15 17 23 22 17 9 14 16 16 22 26 32 31 35 36 34 38 42 41 43 42 41 39 36 31 29 28 27
3 1 3 8 6 5 5 2 2 2 2 4 2 6 14 19 20 20 21 24 14 11 7 8 13 17 27 31 33 33 33 37 37 37 39 38 37 40 40 40 35 29 29 29
6 3 7 6 7 3 3 3 5 3 2 5 7 17 10 18 14 23 21 19 13 12 3 4 12 14 25 33 35 34 34 34 33 33 35 35 36 39 38 39 40 34 31 29
4 3 5 6 8 3 6 8 8 7 7 7 12 22 15 8 14 14 14 15 11 13 9 7 4 5 6 13 23 27 27 28 31 30 29 34 36 36 36 37 39 39 34 33
2 3 4 4 7 7 5 8 14 14 15 16 12 13 2 11 7 9 13 14 11 11 10 5 8 6 9 11 15 19 27 27 26 27 35 35 32 35 37 38 39 39 40 38
3 4 2 5 4 6 5 11 11 6 7 6 7 7 6 6 5 7 10 11 10 9 9 9 4 7 11 15 20 18 18 19 27 29 28 27 30 33 36 37 36 38 38 38
4 4 2 4 2 4 6 4 7 8 10 7 6 5 7 7 5 5 4 7 6 7 7 7 6 3 6 7 9 12 14 15 24 23 24 26 26 31 29 30 33 31 30 32
2 4 1 1 3 6 5 4 4 2 10 8 8 7 7 7 5 5 3 5 7 5 3 4 9 11 6 6 5 12 12 16 17 22 27 29 29 26 25 25 24 25 23 20
4 3 3 2 3 5 6 3 3 0 8 2 4 7 4 6 6 4 4 3 6 5 4 2 2 7 10 12 12 13 12 15 16 14 8 13 15 18 18 19 16 14 13 13
4 3 3 3 5 8 5 6 1 4 7 13 11 9 6 2 2 6 17 8 6 2 9 9 9 7 3 12 22 25 26 23 15 16 13 8 11 12 11 6 11 12 10 9
4 2 3 1 3 7 3 4 1 5 8 9 13 12 12 2 5 8 14 17 6 6 11 7 11 13 12 10 15 13 18 16 17 13 11 12 7 7 5 14 9 8 13 18
3 6 3 8 6 5 3 7 6 4 9 14 10 16 15 7 7 10 6 20 4 9 13 10 13 15 19 20 14 9 4 17 16 8 13 7 15 3 3 5 17 18 16 21
4 4 4 2 5 8 11 8 6 5 10 13 10 13 16 8 10 8 19 8 8 13 12 17 16 17 18 22 24 20 16 13 12 15 16 7 6 12 10 10 16 18 17 17
5 4 3 6 13 11 9 5 5 9 8 13 11 12 12 5 5 9 14 15 10 14 12 21 19 17 15 26 28 23 19 19 19 16 12 14 9 8 10 9 10 11 10 17
4 6 4 5 4 4 11 7 9 8 10 10 9 6 7 9 5 7 11 8 15 16 17 19 18 22 22 32 30 27 26 24 24 23 20 21 21 17 15 15 14 11 8 4
Wind_Direction
15 71 121 151 172 259 222 208 207 254 217 179 222 231 185 192 199 196 194 199 205 208 202 200 205 203 202 208 208 208 208 208 206 206 207 207 209 207 214 216 218 215 210 215
30 101 180 194 162 70 358 0 317 297 190 197 250 232 181 191 204 204 196 199 203 202 185 188 191 192 193 203 210 213 210 207 206 202 200 201 202 207 209 214 216 215 218 222
133 217 337 87 34 43 352 201 267 278 317 314 172 287 184 211 208 210 217 217 210 202 195 189 185 189 192 194 204 209 209 205 204 202 198 198 207 212 215 215 214 215 218 219
114 304 49 48 14 126 346 198 243 308 40 282 60 284 243 197 210 210 215 213 215 209 201 193 189 190 191 198 203 207 207 206 206 203 203 204 207 209 216 220 219 219 223 221
283 4 3 18 327 218 243 299 259 243 205 115 287 121 273 130 212 224 218 214 213 210 202 195 192 194 199 197 198 204 207 208 208 205 208 208 212 213 221 223 226 226 225 223
18 320 62 291 332 329 277 334 27 58 104 250 228 172 267 179 216 223 225 222 216 207 204 201 197 193 198 197 199 200 204 210 211 210 209 208 210 216 220 222 225 227 228 227
339 360 327 358 13 350 26 43 357 344 258 224 211 172 231 243 245 234 221 221 221 211 203 198 195 192 196 194 197 200 204 206 210 210 209 210 213 218 224 225 229 227 227 231
61 336 14 341 89 252 303 124 139 263 234 268 279 248 251 227 250 242 240 233 219 211 204 198 196 194 194 195 196 197 203 205 209 210 213 213 216 218 222 226 228 229 228 232
76 291 322 308 298 56 314 36 282 168 340 64 247 290 304 290 315 327 291 234 217 210 205 201 197 194 194 196 197 197 200 205 209 212 214 215 215 217 220 226 230 233 230 235
188 295 267 292 15 19 117 247 5 10 278 285 295 281 243 327 333 334 326 311 249 221 209 203 199 196 194 195 196 198 202 203 210 214 215 216 216 217 221 224 228 233 237 241
104 121 289 23 24 260 350 21 21 124 134 198 303 270 231 340 327 324 317 310 295 231 212 201 200 197 196 192 194 197 199 202 203 211 215 216 219 218 218 222 230 234 237 246
25 136 244 251 288 295 187 105 102 104 297 255 207 260 283 320 338 340 325 316 312 264 209 202 193 186 188 194 197 197 199 201 202 209 211 215 219 220 221 223 227 230 234 239
170 13 20 344 0 358 52 345 96 139 80 231 240 262 340 333 337 331 324 321 313 300 201 177 177 178 184 192 193 198 202 202 202 203 207 210 214 219 222 225 226 228 228 236
92 132 168 190 223 173 262 243 279 162 159 250 241 287 309 308 323 322 327 321 323 310 95 201 186 192 191 191 192 196 199 204 202 201 204 207 212 218 221 223 225 225 227 233
99 212 190 244 256 257 236 252 244 232 220 218 281 284 290 300 305 310 319 323 329 323 326 90 90 94 142 205 198 194 202 199 195 199 204 209 213 218 220 221 226 230 230 234
29 246 175 266 256 226 246 269 264 249 253 258 255 266 198 316 302 320 344 326 334 323 335 3 105 102 95 127 168 196 193 198 197 200 205 210 212 214 217 222 225 230 235 235
166 158 111 257 258 307 275 230 232 238 233 214 227 241 309 304 305 342 352 325 336 337 347 325 287 149 156 164 166 179 186 201 200 202 209 212 209 212 217 221 223 228 230 236
140 133 148 256 351 229 242 274 252 249 257 232 260 268 288 271 251 276 344 307 307 328 343 329 319 27 97 152 173 168 194 205 202 206 206 213 214 216 213 219 223 225 229 236
94 127 70 257 232 291 289 293 24 353 288 244 234 232 277 304 276 270 305 302 260 255 313 312 351 4 86 111 198 194 188 186 208 204 202 212 215 213 208 208 216 220 224 224
77 76 134 115 250 257 230 158 353 97 282 249 249 273 303 326 297 310 292 294 275 324 5 5 326 47 43 71 126 151 129 103 103 104 149 205 193 205 203 187 170 164 157 148
328 341 209 229 248 283 266 302 253 175 278 328 321 305 268 234 349 325 324 266 239 77 41 54 70 77 47 98 98 97 99 94 93 84 69 59 101 109 107 130 142 131 135 156
203 199 238 172 216 277 190 344 359 262 298 307 310 303 299 314 279 292 316 273 225 115 78 59 67 54 57 75 109 128 120 97 98 98 63 85 247 120 52 225 187 181 164 164
263 194 211 193 222 263 255 239 274 271 277 297 289 296 301 288 309 252 274 275 186 88 79 73 75 62 52 62 84 86 124 156 168 148 105 111 253 232 206 164 183 172 175 183
256 178 234 329 267 289 297 288 268 246 267 280 276 278 285 244 264 1 354 270 102 69 59 70 64 58 52 62 77 68 75 112 152 150 163 149 209 196 156 189 213 200 191 190
211 155 229 253 281 291 276 246 286 308 279 282 284 283 274 80 22 73 28 348 32 77 77 68 52 38 38 62 62 66 77 91 96 98 116 115 131 120 121 112 119 134 158 190
195 207 178 242 235 201 280 292 313 308 305 323 317 319 28 102 77 62 75 9 20 48 60 65 63 53 35 56 53 49 57 68 76 74 80 84 87 77 78 82 82 84 92 115